Regional Weather Roundup
Issued by NWS Bismarck, ND

Home | Current Version | Previous Version | Text Only | Print | Product List | Glossary On
Versions: 1 2 3 4 5 6 7 8 9 10 11 12 13 14 15 16 17 18 19 20 21 22 23 24 25 26 27 28 29 30 31 32 33 34 35 36 37 38 39 40 41 42 43 44 45 46 47 48 49 50
625
ASUS43 KBIS 131102
RWRBIS

NWR BROADCAST TEXT
NATIONAL WEATHER SERVICE BISMARCK ND
500 AM CST SAT FEB 13 2016

NOTE: "FAIR" INDICATES FEW OR NO CLOUDS BELOW 12,000 FEET WITH NO
SIGNIFICANT WEATHER AND/OR OBSTRUCTIONS TO VISIBILITY.


CITY           SKY/WX    TMP DP  RH WIND       PRES   REMARKS
WILLISTON      CLOUDY    13   8  81 SE13      30.14F WCI  -2
MINOT          CLOUDY     8  -5  55 SE9       30.29F WCI  -5
MINOT AFB      CLOUDY     7  -2  67 SE14G20   30.29F WCI -10
BISMARCK       CLOUDY     9   0  67 SE10      30.35F WCI  -5
DICKINSON      CLOUDY    11   7  84 SE23G32   30.10F WCI  -9
GARRISON         N/A      7   1  76 SE15      30.28F WCI -10
HETTINGER ARPT CLOUDY    13  10  88 SE14G23   30.16F WCI  -2
JAMESTOWN      CLOUDY    -3 -11  68 SE12      30.46F WCI -21
CARRINGTON     FAIR      -2  -6  84 SE15      30.44F WCI -22
HAZEN          CLOUDY     9   1  72 SE13G18   30.31F WCI  -7
LINTON         CLOUDY     5  -2  72 SE15      30.37F WCI -13
MANDAN         FLURRIES   5   0  78 SE15      30.32F WCI -13
OAKES          FAIR      -2  -9  71 SE10      30.50F WCI -19
STANLEY        FLURRIES   7   5  92 SE15G23   30.21F WCI -11
WATFORD CITY   CLOUDY    12   7  79 SE13      30.15F WCI  -3
$$

CITY           SKY/WX    TMP DP  RH WIND       PRES   REMARKS
GRAND FORKS    CLOUDY    -8 -13  78 S6        30.59F WCI -21
GRAND FORKS AF CLOUDY   -10 -16  74 S3        30.58F
DEVILS LAKE    CLOUDY    -8 -12  83 SE9       30.46F WCI -25
FARGO          CLOUDY    -7 -12  79 SE5       30.60F WCI -18
CAVALIER       FAIR      -9 -13  84 S5        30.57F WCI -21
GRAFTON        FAIR     -11 -15  84 S7        30.60F WCI -26
GWINNER        FAIR      -4  -9  77 SE7       30.54F WCI -18
LANGDON        FAIR     -18 -24  76 SE9       30.45F WCI -38
ROLLA          FAIR      -9 -13  84 S13       30.39F WCI -30
$$

CITY           SKY/WX    TMP DP  RH WIND       PRES   REMARKS
ABERDEEN       CLOUDY     3  -6  66 SE9       30.51F WCI -12
MOBRIDGE       FLURRIES   7  -1  70 SE20      30.32F WCI -13
BUFFALO          N/A     19  16  88 SE15      30.02F WCI   5
RAPID CITY     CLOUDY    28  25  88 SE13      30.07F WCI  17
GLASGOW        CLOUDY    18  14  84 E17       29.96F WCI   3
SIDNEY         CLOUDY    19  12  73 SE9       30.10F WCI   9
WOLF POINT     CLOUDY    18  12  77 E10       30.04F WCI   6
GLENDIVE       CLOUDY    23  19  86 SE7       30.05F WCI  15
MILES CITY     CLOUDY    29  24  82 SE12      29.97F WCI  19
BAKER          CLOUDY    20  16  84 SE18G29   30.02F WCI   5
$$

CITY           SKY/WX    TMP DP  RH WIND       PRES   REMARKS
BILLINGS       CLOUDY    33  29  85 SW13      29.93F
GREAT FALLS    CLEAR     35  28  75 NE3       29.86S
$$





USA.gov is the U.S. government's official web portal to all federal, state and local government web resources and services.